sat.trackr.live / text

‹ back to catalog

KUIPER-00180

NORAD 67768 · 2026-030E

PAYLOAD ACTIVE UNKNOWN

§ Identity

Operator
Country
US
Launch date
2026-02-12
Launch site
FRGUI
Launch vehicle
Mass (kg)
RCS (m²)

External: N2YO · Heavens-Above · Gunter

§ Orbital elements

Epoch: 2026-09-20T09:55:09.607296Z

Period
97.30 min
Inclination
51.8983°
Eccentricity
0.0000697
Mean motion
14.79928401 rev/d
Perigee alt
629.1 km
Apogee alt
630.0 km
Semi-major
7,007.7 km
B*
2.5229e-4
RAAN
67.0306°
Arg perigee
130.3287°
Mean anomaly
229.7736°
Rev number
3,408

§ Raw data

KUIPER-001801 67768U 26030E   26263.41330564  .00001702  00000+0  25229-3 0  99922 67768  51.8983  67.0306 0000697 130.3287 229.7736 14.79928401 34084

JSON: /api/v1/satellites/67768 · /tle

For live sub-satellite position, see the globe view (requires WebGL).

§ Visibility from observer

Set your observer location to see the next 7 days of passes ≥ 10°. The values pass through the URL so the page stays shareable.

No JS? Fill the form by hand. The geolocation button needs JavaScript.